User: anonymous   Login
Location: ???? ?????????
(31.1304°N, 31.7111°E)
Time: 09:43:03
(UTC+00:00)
Language:

Cosmos 968 Rocket - Orbit

View from above orbital plane
View from above orbital plane
View from above satellite
View from above satellite

Ground track
Ground track

The orbit data is extracted from the following two-line orbital elements,

1 10521U 77119B   21019.18737714  .00000068  00000-0  29521-4 0  9992
2 10521  74.0286 358.6302 0019918  48.8831 311.4040 14.40808297261202
Epoch (UTC): 19 January 2021 04:29:49
Eccentricity: 0.0019918
inclination: 74.0286°
perigee height: 741 km
apogee height: 770 km
right ascension of ascending node: 358.6302°
argument of perigee: 48.8831°
revolutions per day: 14.40808297
mean anomaly at epoch: 311.4040°
orbit number at epoch: 26120

The dashed part of the orbit path shows where the satellite is in the earth's shadow,  

DLR